Regional Weather Roundup
Issued by NWS Sioux Falls, SD

Home | Current Version | Previous Version | Graphics & Text | Print | Product List | Glossary On
Versions: 1 2 3 4 5 6 7 8 9 10 11 12 13 14 15 16 17 18 19 20 21 22 23 24 25 26 27 28 29 30 31 32 33 34 35 36 37 38 39 40 41 42 43 44 45 46 47 48 49 50
000
ASUS43 KFSD 011710
RWRFSD

WEATHER ROUNDUP FOR SE SOUTH DAKOTA/SW MINNESOTA/NW IOWA
NATIONAL WEATHER SERVICE SIOUX FALLS SD
1200 PM CDT WED APR 01 2015

NOTE: "FAIR" INDICATES FEW OR NO CLOUDS BELOW 12,000 FEET WITH NO
SIGNIFICANT WEATHER AND OR OBSTRUCTIONS TO VISIBILITY.


SDZ038>040-050-052>070-011800-
SOUTHEAST SOUTH DAKOTA

CITY           SKY/WX    TMP DP  RH WIND       PRES   REMARKS
BROOKINGS      CLOUDY    66  43  42 S25G37    29.53F
CHAMBERLAIN    CLOUDY    63  33  33 W21G30    29.54R
HURON          CLOUDY    71  40  32 SW15G21   29.47F
MADISON        FAIR      68  41  37 S26G35    29.54S
MITCHELL       PTSUNNY   75  43  31 SW14G30   29.50F
SIOUX FALLS    PTSUNNY   74  42  31 S26G37    29.56F
WINNER         FAIR      67  35  30 NW21G30   29.58R
YANKTON        MOSUNNY   73  45  35 S16G29    29.57F
$$

MNZ071-072-080-081-089-090-097-098-011800-
SOUTHWEST MINNESOTA

CITY           SKY/WX    TMP DP  RH WIND       PRES   REMARKS
FAIRMONT       MOSUNNY   75  28  17 S36G41    29.65F
JACKSON        SUNNY     75  27  16 S31G39    29.66F
LUVERNE        PTSUNNY   72  37  28 S29G41    29.60F
MARSHALL       CLOUDY    73  39  29 SW38G51   29.52F
MONTEVIDEO     CLOUDY    70  39  32 SW16G26   29.47F HAZE
PIPESTONE      CLOUDY    70  39  32 SW31G37   29.58F
REDWOOD FALLS  CLOUDY    73  35  25 S39G48    29.53F HAZE
TRACY          PTSUNNY   74  40  30 S32G43    29.56F
WINDOM         MOSUNNY   75  30  19 S23G44    29.61F
WORTHINGTON    MOSUNNY   73  41  31 S31G41    29.63F
$$

IAZ001>003-012>014-020>022-031-032-NEZ013-014-SDZ071-011800-
NORTHWEST IOWA

CITY           SKY/WX    TMP DP  RH WIND       PRES   REMARKS
CHEROKEE       SUNNY     74  39  28 S26G32    29.68F
DENISON        SUNNY     75  34  22 S28G40    29.71F
ESTHERVILLE    SUNNY     74  33  22 S29G49    29.67F
LE MARS        SUNNY     75  43  31 S33G44    29.62F
ORANGE CITY    SUNNY     75  37  25 S28G41    29.63F
SHELDON        SUNNY     73  41  31 S32G43    29.62F
SIOUX CITY     SUNNY     76  42  29 S23G32    29.67F
SPENCER        SUNNY     76  38  25 S33G45    29.66F
STORM LAKE     SUNNY     75  36  23 S39G48    29.70F
$$

ABBREVIATIONS USED IN REMARKS
   TC - TEMPERATURE IN CELSIUS
  WCI - WIND CHILL INDEX
   HX - HEAT INDEX
  VSB - VISIBILITY



USA.gov is the U.S. government's official web portal to all federal, state and local government web resources and services.